Location: Blankensee
(53.5126°N, 14.3055°E)
Time: 16:26:49
(UTC+00:00)

Okean 2 Rocket - Pass Details

Date: 08 August 2020
Orbit: 616 x 641 km, 82.5° (Epoch: 19 September)

Event Time Altitude Azimuth Distance (km) Brightness Sun altitude
Exits shadow 01:02:16 24° 243° (WSW) 1,320 4.3 -16.3°
Maximum altitude 01:04:14 35° 291° (WNW) 1,028 4.1 -16.1°
Drops below altitude 10° 01:08:24 10° 357° (N) 2,040 6.6 -15.8°
Sets 01:10:50 0° 7° (N) 2,957 7.8 -15.6°
